Najm-1

operational
NORAD ID: 47947 Int'l Des: NNA 2021-022 Owner: KACST Country: SA
LEOCIRCULARRETROGRADESSO

Über Najm-1

Beschreibung wird geladen...

Live-Position

3D-Globus wird geladen...

Nächste Überflüge

Höhenverlauf

Altitude vs Time

uPlot chart will show altitude changes over time

Zweizeiliger Elementsatz

1 47947U 21022R 26072.60191334 .00001095 00000-0 73038-4 0 9992
2 47947 97.3731 312.0371 0018452 137.6347 222.6311 15.08921654273595
Epoch: 13. März 2026 • Age: 27 hours

Aktueller Status

Höhe 546.5 km
Geschwindigkeit 7.59 km/s
Subsatellitenpunkt 37.11°N, 85.05°E
Startdatum 22. März 2021
Alter 4.9 years
Typ other

Technische Details

Klassifizierung Payload
Masse 50.00 kg
Trockenmasse 50.00 kg
Gesamtmasse 50.00 kg
Länge 0.50 m
Durchmesser 0.30 m
Spannweite 0.50 m
Form Box
Hersteller LINA
Bus-Typ Aprize
Phasenstatus In Orbit
Besitzer/Staat KACST/SA

Große Konstellationen

Loading constellations...